[[{"header":{"parameterUnit":"m.s-1","parameterCategory":1,"la1":30.2991,"la2":30.254,"lo1":-89.0895,"lo2":-89.0444,"dy":0.0017,"dx":0.0017,"nx":28,"ny":28,"refTime":"2024-09-01T03:00:00:Z","depth":0,"parameterNumber":2,"parameterNumberName":"U-component_of_WINDS"},"data":[0,0,0,0,0,0,0,0,0,0,0,0,0,0,0,0,0,0,0,0,0,0,0,0,0,0,0,0,0,0,0,0,0,0,0,0,0,0,0,0,0,0,0,0,0,0,0,0,0,0,0,0,0,0,0,0,0,0,-2.242,-2.242,0,-2.2393,-2.2393,-2.2393,-2.2217,-2.2213,-2.2209,-2.2205,-2.2184,-2.2187,-2.219,0,0,0,0,0,0,0,0,0,0,0,0,0,-2.2326,-2.2329,-2.242,-2.242,-2.242,-2.2393,-2.2393,-2.2393,-2.2218,-2.2213,-2.2208,-2.2203,-2.2183,-2.2187,-2.2191,0,0,0,0,0,0,0,0,0,0,0,0,0,-2.234,-2.233,-2.242,-2.2329,-2.2321,-2.2393,-2.2393,-2.2392,-2.2219,-2.2213,-2.2206,-2.22,-2.2181,-2.2186,-2.2191,-2.2352,0,0,-2.2207,-2.2209,0,0,0,0,0,0,0,0,-2.234,-2.2344,-2.2343,-2.2336,-2.2326,-2.2302,-2.2352,-2.2379,-2.2221,-2.2258,-2.2204,-2.2197,-2.2229,-2.2229,-2.2239,-2.2351,-2.235,-2.2207,-2.2211,-2.2213,-2.2214,0,0,0,0,0,0,0,-2.2339,-2.2344,-2.241,-2.2343,-2.2333,-2.2291,-2.2286,-2.2356,-2.228,-2.2254,-2.2241,-2.224,-2.2223,-2.2234,-2.2237,-2.2349,-2.2207,-2.2212,-2.2215,-2.2217,-2.2592,-2.2598,0,0,0,0,0,0,-2.235,-2.2345,-2.2411,-2.2409,-2.2317,-2.2298,-2.2293,-2.2316,-2.2279,-2.2266,-2.2246,-2.2232,-2.2229,-2.2231,-2.2236,-2.2421,-2.2213,-2.2218,-2.2221,-2.2585,-2.2593,-2.2601,0,0,0,0,0,0,-2.2349,-2.2358,-2.2412,-2.2373,-2.2377,-2.2307,-2.2335,-2.2319,-2.233,-2.2272,-2.2258,-2.2271,-2.2224,-2.2228,-2.2323,-2.2418,-2.222,-2.2225,-2.2577,-2.2587,-2.2597,-2.2794,0,0,0,0,0,0,-2.2347,-2.2358,-2.2417,-2.2376,-2.238,-2.2499,-2.2341,-2.2323,-2.2339,-2.2321,-2.2292,-2.2281,-2.2219,-2.2317,-2.2329,-2.2421,-2.2229,-2.2568,-2.2581,-2.2594,-2.2779,-2.281,-2.2836,0,0,0,0,0,-2.2344,-2.2475,-2.2421,-2.243,-2.2452,-2.2505,-2.2507,-2.2431,-2.2347,-2.2407,-2.2369,-2.2282,-2.2405,-2.2328,-2.234,-2.2436,-2.2562,-2.2578,-2.2593,-2.2766,-2.2803,-2.2835,0,0,0,0,0,0,-2.2532,-2.2468,-2.2407,-2.2529,-2.2523,-2.2475,-2.2548,-2.2473,-2.2494,-2.2476,-2.2382,-2.2378,-2.2488,-2.247,-2.2386,-2.2589,-2.2469,-2.2487,-2.2596,-2.2632,-2.266,-2.2662,-2.2233,0,0,0,0,0,-2.2587,-2.2634,-2.2576,-2.2689,-2.2689,-2.262,-2.264,-2.2581,-2.2573,-2.257,-2.254,-2.2537,-2.2574,-2.2602,-2.2633,-2.2774,-2.2767,-2.2846,-2.2875,-2.2899,-2.2917,-2.2991,-2.3026,-2.2651,-2.2651,-2.2651,0,0,-2.2703,-2.2673,-2.2709,-2.2726,-2.2715,-2.2767,-2.2619,-2.2681,-2.2719,-2.258,-2.2668,-2.2646,-2.2636,-2.2756,-2.2806,-2.2745,-2.3018,-2.2919,-2.2938,-2.2943,-2.3011,-2.3046,-2.3078,-2.2662,-2.266,-2.2658,0,0,-2.2939,-2.2921,-2.3013,-2.3005,-2.2989,-2.2941,-2.2964,-2.2927,-2.2906,-2.2992,-2.2889,-2.2934,-2.3001,-2.2998,-2.3006,-2.3241,-2.3163,-2.3254,-2.3405,-2.3479,-2.3509,-2.3534,-2.362,-2.3651,-2.3272,-2.3272,-2.3273,0,-2.3086,-2.3158,-2.3071,-2.3139,-2.315,-2.3024,-2.3117,-2.3114,-2.3111,-2.3122,-2.3052,-2.3133,-2.3118,-2.3235,-2.3293,-2.3302,-2.3326,-2.3258,-2.3511,-2.3536,-2.3559,-2.3639,-2.3671,-2.3284,-2.3282,-2.3281,-2.328,0,-2.3339,-2.3391,-2.3468,-2.3465,-2.3485,-2.3566,-2.3492,-2.3522,-2.3462,-2.3423,-2.3513,-2.3489,-2.3514,-2.3537,-2.348,-2.3647,-2.3609,-2.3527,-2.3404,-2.3607,-2.3681,-2.3711,-2.33,-2.3296,-2.3293,-2.329,0,0,-2.3696,-2.3642,-2.3672,-2.3669,-2.3642,-2.3682,-2.3757,-2.3779,-2.3808,-2.381,-2.3872,-2.3931,-2.3854,-2.3863,-2.3804,-2.3868,-2.4057,-2.3777,-2.3776,-2.3832,-2.4242,-2.4305,-2.4342,-2.4004,-2.4009,-2.4014,-2.4243,0,-2.3924,-2.4048,-2.3971,-2.4108,-2.4156,-2.4036,-2.4102,-2.4094,-2.4059,-2.4096,-2.4057,-2.4101,-2.3996,-2.4,-2.4059,-2.4022,-2.4139,-2.4004,-2.4063,-2.4067,-2.4071,-2.438,-2.4448,-2.4665,-2.4271,-2.4276,-2.4279,0,-2.4207,-2.4219,-2.436,-2.4323,-2.434,-2.4401,-2.4415,-2.4451,-2.4439,-2.4409,-2.4419,-2.4344,-2.4417,-2.4295,-2.4395,-2.4306,-2.4325,-2.4311,-2.4317,-2.4321,-2.4187,-2.4395,-2.4732,-2.4766,-2.4324,-2.432,-2.4317,0,-2.4455,-2.4506,-2.4597,-2.4598,-2.4557,-2.4603,-2.4588,-2.457,-2.4588,-2.46,-2.4612,-2.4634,-2.4647,-2.4666,-2.46,-2.4517,-2.471,-2.4582,-2.4689,-2.4692,-2.4737,-2.4736,-2.5085,-2.4748,-2.4747,-2.4746,-2.4746,0,-2.4719,-2.4811,-2.4708,-2.4764,-2.4863,-2.4774,-2.4876,-2.4848,-2.4833,-2.4883,-2.4782,-2.4832,-2.4739,-2.4781,-2.4729,-2.4821,-2.4827,-2.4807,-2.4793,-2.4817,-2.482,-2.483,-2.4814,-2.4755,-2.4753,-2.4751,-2.475,0,-2.5014,-2.4948,-2.5039,-2.4992,-2.4982,-2.5058,-2.5018,-2.5069,-2.5026,-2.5092,-2.5102,-2.5036,-2.5079,-2.5014,-2.505,-2.5016,-2.5143,-2.5105,-2.5147,-2.5136,-2.5248,-2.5239,-2.5617,-2.5663,-2.5295,-2.5299,-2.5302,0,-2.5187,-2.5255,-2.5214,-2.5239,-2.5229,-2.5272,-2.5289,-2.5204,-2.5227,-2.5218,-2.5271,-2.5305,-2.5327,-2.5402,-2.5359,-2.5386,-2.5349,-2.548,-2.5353,-2.5376,-2.5353,-2.535,-2.5357,-2.5507,-2.5511,-2.5515,-2.5517,0,-2.5503,-2.5467,-2.5494,-2.5511,-2.5534,-2.5544,-2.5546,-2.5573,-2.5484,-2.5515,-2.5556,-2.5573,-2.5609,-2.5645,-2.5661,-2.5648,-2.557,-2.5557,-2.5584,-2.5611,-2.5633,-2.5623,-2.522,-2.555,-2.5546,-2.5544,-2.5542,-2.5541,-2.5743,-2.5797,-2.5777,-2.5811,-2.5803,-2.5808,-2.5853,-2.5815,-2.5848,-2.5869,-2.5817,-2.5871,-2.5858,-2.5871,-2.5867,-2.591,-2.5853,-2.5891,-2.5901,-2.5912,-2.593,-2.5624,-2.5912,-2.5911,-2.591,-2.5909,-2.5909,0,-2.6055,-2.6035,-2.6067,-2.6072,-2.61,-2.602,-2.6018,-2.6047,-2.6096,-2.6089,-2.6112,-2.6161,-2.6195,-2.6154,-2.6181,-2.6223,-2.6188,-2.6233,-2.623,-2.6228,-2.5979,-2.5954,-2.6261,-2.6261,-2.6261,-2.6261,-2.6261,-2.6261,-2.622,-2.6307,-2.6269,-2.6352,-2.6332,-2.6383,-2.6389,-2.6393,-2.6387,-2.6444,-2.6471,-2.6443,-2.6423,-2.6448,-2.6476,-2.6463,-2.6478,-2.6537,-2.6512,-2.628,-2.6246,-2.6213,-2.6189,-2.6541,-2.6541,-2.6758,-2.676,-2.6762]},{"header":{"parameterUnit":"m.s-1","parameterCategory":1,"la1":30.2991,"la2":30.254,"lo1":-89.0895,"lo2":-89.0444,"dy":0.0017,"dx":0.0017,"nx":28,"ny":28,"refTime":"2024-09-01T03:00:00:Z","depth":0,"parameterNumber":3,"parameterNumberName":"V-component_of_WINDS"},"data":[0,0,0,0,0,0,0,0,0,0,0,0,0,0,0,0,0,0,0,0,0,0,0,0,0,0,0,0,0,0,0,0,0,0,0,0,0,0,0,0,0,0,0,0,0,0,0,0,0,0,0,0,0,0,0,0,0,0,-1.3612,-1.3612,0,-1.3617,-1.3617,-1.3617,-1.3627,-1.3627,-1.3628,-1.3628,-1.3631,-1.3631,-1.3631,0,0,0,0,0,0,0,0,0,0,0,0,0,-1.361,-1.361,-1.3612,-1.3612,-1.3612,-1.3617,-1.3617,-1.3617,-1.3627,-1.3627,-1.3628,-1.3628,-1.3631,-1.3631,-1.3631,0,0,0,0,0,0,0,0,0,0,0,0,0,-1.3613,-1.361,-1.3612,-1.3618,-1.3619,-1.3617,-1.3617,-1.3617,-1.3627,-1.3627,-1.3628,-1.3628,-1.3631,-1.3631,-1.3631,-1.3624,0,0,-1.3631,-1.3631,0,0,0,0,0,0,0,0,-1.3613,-1.3613,-1.3617,-1.3618,-1.3618,-1.3622,-1.3618,-1.3619,-1.3627,-1.3624,-1.3628,-1.3628,-1.3628,-1.3628,-1.3628,-1.3624,-1.3624,-1.3631,-1.3631,-1.363,-1.363,0,0,0,0,0,0,0,-1.3612,-1.3613,-1.3614,-1.3617,-1.3618,-1.362,-1.362,-1.3618,-1.3624,-1.3624,-1.3625,-1.3625,-1.3628,-1.3628,-1.3628,-1.3624,-1.3631,-1.363,-1.363,-1.363,-1.3612,-1.3612,0,0,0,0,0,0,-1.3612,-1.3612,-1.3614,-1.3614,-1.3616,-1.362,-1.362,-1.362,-1.3624,-1.3625,-1.3625,-1.3626,-1.3628,-1.3628,-1.3628,-1.3619,-1.363,-1.363,-1.363,-1.3612,-1.3612,-1.3612,0,0,0,0,0,0,-1.3612,-1.3612,-1.3614,-1.3613,-1.3614,-1.3619,-1.3619,-1.362,-1.362,-1.3625,-1.3626,-1.3624,-1.3629,-1.3629,-1.3624,-1.3619,-1.363,-1.363,-1.3613,-1.3612,-1.3612,-1.36,0,0,0,0,0,0,-1.3611,-1.3612,-1.3609,-1.3613,-1.3614,-1.361,-1.3619,-1.362,-1.362,-1.3621,-1.3624,-1.3625,-1.3629,-1.3625,-1.3624,-1.3619,-1.363,-1.3613,-1.3613,-1.3612,-1.3601,-1.3599,-1.3597,0,0,0,0,0,-1.3611,-1.3606,-1.3609,-1.3609,-1.3611,-1.361,-1.361,-1.3615,-1.362,-1.3617,-1.362,-1.3625,-1.362,-1.3624,-1.3624,-1.3618,-1.3614,-1.3613,-1.3612,-1.3601,-1.3599,-1.3597,0,0,0,0,0,0,-1.3601,-1.3606,-1.361,-1.3606,-1.3607,-1.3612,-1.3608,-1.3613,-1.3613,-1.3614,-1.362,-1.362,-1.3615,-1.3616,-1.3621,-1.3611,-1.3618,-1.3617,-1.361,-1.3608,-1.3606,-1.3605,-1.363,0,0,0,0,0,-1.3598,-1.3597,-1.3602,-1.3597,-1.3598,-1.3603,-1.3603,-1.3606,-1.3608,-1.3608,-1.3611,-1.3612,-1.361,-1.3609,-1.3608,-1.3601,-1.3601,-1.3597,-1.3596,-1.3594,-1.3593,-1.3588,-1.3586,-1.3609,-1.3609,-1.3609,0,0,-1.3592,-1.3595,-1.3594,-1.3595,-1.3597,-1.3595,-1.3603,-1.3601,-1.3599,-1.3608,-1.3604,-1.3606,-1.3607,-1.3601,-1.3598,-1.3602,-1.3587,-1.3593,-1.3592,-1.3591,-1.3587,-1.3584,-1.3582,-1.3608,-1.3608,-1.3608,0,0,-1.358,-1.3583,-1.3579,-1.358,-1.3582,-1.3585,-1.3584,-1.3588,-1.3589,-1.3586,-1.3591,-1.3589,-1.3587,-1.3587,-1.3587,-1.3574,-1.3578,-1.3574,-1.3564,-1.3559,-1.3558,-1.3556,-1.355,-1.3548,-1.3573,-1.3573,-1.3573,0,-1.3572,-1.357,-1.3576,-1.3573,-1.3573,-1.3581,-1.3576,-1.3577,-1.3579,-1.3578,-1.3582,-1.3579,-1.358,-1.3574,-1.357,-1.357,-1.3568,-1.3573,-1.3557,-1.3556,-1.3554,-1.3549,-1.3546,-1.3572,-1.3572,-1.3572,-1.3572,0,-1.3559,-1.3558,-1.3554,-1.3555,-1.3555,-1.3551,-1.3556,-1.3555,-1.3558,-1.3561,-1.3556,-1.3558,-1.3557,-1.3556,-1.356,-1.3549,-1.3551,-1.3557,-1.3563,-1.3551,-1.3546,-1.3544,-1.3571,-1.3571,-1.3571,-1.3572,0,0,-1.3541,-1.3545,-1.3543,-1.3543,-1.3546,-1.3545,-1.3541,-1.354,-1.3538,-1.3539,-1.3535,-1.3532,-1.3537,-1.3536,-1.354,-1.3536,-1.3523,-1.3541,-1.3541,-1.3536,-1.351,-1.3506,-1.3503,-1.3527,-1.3526,-1.3526,-1.351,0,-1.3528,-1.3522,-1.3527,-1.352,-1.3518,-1.3525,-1.3521,-1.3522,-1.3524,-1.3522,-1.3524,-1.3521,-1.3528,-1.3528,-1.3524,-1.3526,-1.3518,-1.3527,-1.3522,-1.3521,-1.352,-1.3501,-1.3496,-1.3481,-1.3508,-1.3508,-1.3507,0,-1.3513,-1.3513,-1.3505,-1.3507,-1.3507,-1.3503,-1.3502,-1.35,-1.3501,-1.3503,-1.3502,-1.3506,-1.3502,-1.3509,-1.3502,-1.3508,-1.3506,-1.3506,-1.3506,-1.3505,-1.3513,-1.3497,-1.3476,-1.3473,-1.3504,-1.3505,-1.3505,0,-1.3498,-1.3496,-1.3491,-1.3491,-1.3494,-1.3491,-1.3492,-1.3493,-1.3492,-1.3491,-1.349,-1.3488,-1.3487,-1.3485,-1.3488,-1.3494,-1.348,-1.3488,-1.348,-1.348,-1.3476,-1.3476,-1.3452,-1.3477,-1.3477,-1.3477,-1.3477,0,-1.3484,-1.3478,-1.3485,-1.3481,-1.3475,-1.3481,-1.3474,-1.3476,-1.3476,-1.3473,-1.3479,-1.3475,-1.3481,-1.3477,-1.348,-1.3472,-1.3472,-1.3472,-1.3473,-1.3471,-1.3471,-1.3469,-1.347,-1.3476,-1.3477,-1.3477,-1.3477,0,-1.3466,-1.347,-1.3465,-1.3467,-1.3468,-1.3463,-1.3465,-1.3462,-1.3464,-1.3459,-1.3458,-1.3462,-1.3458,-1.3461,-1.3458,-1.3459,-1.3449,-1.3452,-1.3449,-1.3449,-1.344,-1.344,-1.3413,-1.3409,-1.3438,-1.3438,-1.3437,0,-1.3456,-1.3452,-1.3454,-1.3452,-1.3452,-1.3449,-1.3448,-1.3453,-1.3451,-1.3451,-1.3447,-1.3443,-1.3441,-1.3434,-1.3436,-1.3433,-1.3434,-1.3425,-1.3434,-1.3431,-1.3432,-1.3432,-1.3431,-1.3423,-1.3423,-1.3422,-1.3422,0,-1.3436,-1.3438,-1.3436,-1.3434,-1.3433,-1.3431,-1.3431,-1.3429,-1.3434,-1.3431,-1.3427,-1.3425,-1.3421,-1.3417,-1.3414,-1.3414,-1.3418,-1.342,-1.3417,-1.3415,-1.3412,-1.3412,-1.3442,-1.342,-1.342,-1.342,-1.342,-1.3421,-1.3421,-1.3417,-1.3418,-1.3415,-1.3415,-1.3414,-1.341,-1.3412,-1.3409,-1.3406,-1.3409,-1.3404,-1.3403,-1.34,-1.3399,-1.3394,-1.3398,-1.3395,-1.3394,-1.3393,-1.339,-1.3414,-1.3394,-1.3394,-1.3394,-1.3394,-1.3394,0,-1.3401,-1.3401,-1.3399,-1.3397,-1.3394,-1.3399,-1.3398,-1.3396,-1.3391,-1.339,-1.3387,-1.3382,-1.3378,-1.3379,-1.3375,-1.3371,-1.3372,-1.3369,-1.3369,-1.3368,-1.3388,-1.339,-1.3368,-1.3368,-1.3368,-1.3368,-1.3368,-1.3368,-1.339,-1.3383,-1.3385,-1.3378,-1.3378,-1.3373,-1.3372,-1.3371,-1.337,-1.3364,-1.336,-1.3361,-1.336,-1.3356,-1.3352,-1.3353,-1.335,-1.3346,-1.3347,-1.3365,-1.3367,-1.337,-1.3371,-1.3346,-1.3346,-1.3327,-1.3327,-1.3327]}]]